Flag for U.S.A. Weather past 2 weeks in Antioch, California, U.S.A.

Now
80 °F

Scattered clouds.


Feels Like: 80 °F
Forecast: 60 / 82 °F
Wind: 12 mph from Southwest

Location: Buchanan Field

Current Time: Jul 6, 2015 at 6:19:31 PM

Latest Report: Jul 6, 2015 at 5:53 PM


Visibility: 10 mi

Pressure: 29.93 "Hg

Humidity: 39%

Dew point: 53 °F

Location of AntiochLocation

Historic Weather in Antioch — Graph

°F

Antioch temperature yesterday

Maximum temperature yesterday: 78 °F (at 12:53 PM)
Minimum temperature yesterday: 62 °F (at 4:02 AM)
Average temperature yesterday: 68 °F

Past Weeks' High & Low Weather Summary

 TemperatureHumidityPressure
High105 °F (Jun 30, 5:53 PM)81% (Jun 29, 12:53 AM)30.07 "Hg (Jun 29, 12:53 AM)
Low57 °F (Jun 22, 4:53 AM)6% (Jun 30, 5:53 PM)29.72 "Hg (Jun 30, 5:53 PM)
Average73 °F51%29.87 "Hg
* Reported Jun 21 4:53 PM — Jul 6 4:53 PM, Antioch, Weather by CustomWeather, © 2015

Note: Actual official high and low records may vary slightly from our data, if they occured in-between our weather recording intervals... More about our weather records

Advertising

Antioch weather history for previous 24 hours

 ConditionsComfort  
Time TempWeatherWind HumidityBarometerVisibility
4:53 PM
Mon, Jul 6
84 °FSunny.14 mph33%29.93 "Hg10 mi
3:53 PM84 °FScattered clouds.15 mph35%29.95 "Hg10 mi
2:53 PM84 °FSunny.14 mph35%29.97 "Hg10 mi
1:53 PM82 °FSunny.13 mph37%29.99 "Hg10 mi
12:53 PM80 °FSunny.10 mph39%30.00 "Hg10 mi
11:53 AM74 °FSunny.8 mph45%30.01 "Hg10 mi
10:53 AM72 °FSunny.14 mph48%30.01 "Hg10 mi
9:53 AM68 °FSunny.10 mph61%30.03 "Hg10 mi
9:00 AM67 °FPartly sunny.14 mph63%30.07 "Hg10 mi
7:53 AM62 °FOvercast.10 mph78%30.02 "Hg10 mi
6:53 AM62 °FOvercast.12 mph78%30.02 "Hg10 mi
5:53 AM62 °FOvercast.14 mph75%30.00 "Hg10 mi
4:53 AM61 °FOvercast.13 mph78%29.98 "Hg10 mi
3:53 AM62 °FOvercast.12 mph78%29.96 "Hg10 mi
2:53 AM63 °FOvercast.6 mph75%29.96 "Hg10 mi
1:53 AM62 °FOvercast.6 mph78%29.96 "Hg10 mi
12:53 AM63 °FOvercast.6 mph75%29.95 "Hg10 mi
12:02 AM63 °FPassing clouds.6 mph75%29.98 "Hg10 mi
11:53 PM
Sun, Jul 5
63 °FPassing clouds.6 mph75%29.94 "Hg10 mi
10:53 PM63 °FPassing clouds.8 mph75%29.93 "Hg10 mi
9:53 PM64 °FPassing clouds.6 mph73%29.91 "Hg10 mi
8:53 PM66 °FSunny.10 mph68%29.90 "Hg10 mi
7:53 PM68 °FScattered clouds.10 mph63%29.89 "Hg10 mi
6:53 PM71 °FSunny.12 mph57%29.87 "Hg10 mi
Weather by CustomWeather, © 2015

See weather overviewHow to use our weather pages